TimeCET,TemperatureF,Dew PointF,Humidity,Sea Level PressureIn,VisibilityMPH,Wind Direction,Wind SpeedMPH,Gust SpeedMPH,PrecipitationIn,Events,Conditions,WindDirDegrees,DateUTC
12:00 AM,35.6,28.4,75,30.33,-9999.0,North,5.8,-,N/A,,Clear,360,2013-02-27 23:00:00
12:30 AM,35.6,28.4,75,30.33,-9999.0,North,5.8,-,N/A,,Clear,360,2013-02-27 23:30:00
1:00 AM,35,28,66,30.38,6,NNE,4.5,,,,Scattered Clouds,20,2013-02-28 00:00:00
1:00 AM,35.6,28.4,75,30.33,6.2,NE,4.6,-,N/A,,Partly Cloudy,40,2013-02-28 00:00:00
1:30 AM,33.8,28.4,81,30.33,-9999.0,North,3.5,-,N/A,,Clear,10,2013-02-28 00:30:00
2:00 AM,32.0,26.6,80,30.33,5.0,Variable,2.3,-,N/A,,Unknown,0,2013-02-28 01:00:00
2:30 AM,33.8,28.4,81,30.33,5.0,Variable,1.2,-,N/A,,Unknown,0,2013-02-28 01:30:00
3:00 AM,33.8,28.4,81,30.33,4.3,Calm,Calm,-,N/A,,Partly Cloudy,0,2013-02-28 02:00:00
3:30 AM,33.8,28.4,81,30.30,4.3,Calm,Calm,-,N/A,,Scattered Clouds,0,2013-02-28 02:30:00
4:00 AM,32.0,26.6,80,30.30,3.7,Variable,2.3,-,N/A,,Scattered Clouds,0,2013-02-28 03:00:00
4:30 AM,32.0,28.4,87,30.30,3.7,Variable,2.3,-,N/A,,Mostly Cloudy,0,2013-02-28 03:30:00
5:00 AM,32.0,28.4,87,30.30,3.7,Calm,Calm,-,N/A,,Mostly Cloudy,0,2013-02-28 04:00:00
5:30 AM,32.0,28.4,87,30.30,3.1,Variable,2.3,-,N/A,,Mostly Cloudy,0,2013-02-28 04:30:00
6:00 AM,32.0,28.4,87,30.30,3.1,NNE,3.5,-,N/A,,Mostly Cloudy,20,2013-02-28 05:00:00
6:30 AM,32.0,28.4,87,30.30,-9999.0,NNE,4.6,-,N/A,,Mostly Cloudy,30,2013-02-28 05:30:00
7:00 AM,32,28,81,30.37,2,ENE,6.7,,,,Mist,70,2013-02-28 06:00:00
7:00 AM,32.0,28.4,87,30.30,1.9,ENE,4.6,-,N/A,,Mostly Cloudy,60,2013-02-28 06:00:00
7:30 AM,32.0,30.2,93,30.30,2.2,East,4.6,-,N/A,,Mostly Cloudy,90,2013-02-28 06:30:00
8:00 AM,33.8,30.2,87,30.30,2.2,East,6.9,-,N/A,,Mostly Cloudy,90,2013-02-28 07:00:00
8:30 AM,33.8,30.2,87,30.33,-9999.0,East,6.9,-,N/A,,Mostly Cloudy,80,2013-02-28 07:30:00
9:00 AM,35.6,30.2,81,30.33,2.2,ENE,5.8,-,N/A,,Mostly Cloudy,70,2013-02-28 08:00:00
9:30 AM,35.6,32.0,87,30.30,-9999.0,ENE,8.1,-,N/A,,Mostly Cloudy,60,2013-02-28 08:30:00
10:00 AM,37.4,32.0,81,30.30,2.5,ENE,9.2,-,N/A,,Mostly Cloudy,70,2013-02-28 09:00:00
10:30 AM,37.4,32.0,81,30.30,2.5,East,11.5,-,N/A,,Mostly Cloudy,80,2013-02-28 09:30:00
10:43 AM,39.2,32.0,75,30.30,3.1,East,13.8,-,N/A,,Mostly Cloudy,80,2013-02-28 09:43:00
11:00 AM,39.2,32.0,75,30.30,3.1,East,12.7,-,N/A,,Mostly Cloudy,80,2013-02-28 10:00:00
11:30 AM,41.0,32.0,70,30.30,3.7,East,11.5,-,N/A,,Mostly Cloudy,80,2013-02-28 10:30:00
12:00 PM,41.0,32.0,70,30.30,5.0,East,12.7,-,N/A,,Mostly Cloudy,80,2013-02-28 11:00:00
12:30 PM,41.0,32.0,70,30.27,5.6,East,13.8,-,N/A,,Mostly Cloudy,80,2013-02-28 11:30:00
1:00 PM,41,30,55,30.31,6,East,11.2,,,,Mostly Cloudy,90,2013-02-28 12:00:00
1:00 PM,41.0,32.0,70,30.27,6.2,East,11.5,-,N/A,,Mostly Cloudy,90,2013-02-28 12:00:00
1:30 PM,42.8,32.0,66,30.24,6.2,East,10.4,-,N/A,,Mostly Cloudy,90,2013-02-28 12:30:00
2:00 PM,42.8,32.0,66,30.24,6.2,East,9.2,-,N/A,,Partly Cloudy,80,2013-02-28 13:00:00
2:30 PM,44.6,30.2,57,30.24,-9999.0,East,9.2,-,N/A,,Clear,100,2013-02-28 13:30:00
3:00 PM,44.6,32.0,61,30.24,-9999.0,East,6.9,-,N/A,,Clear,80,2013-02-28 14:00:00
3:30 PM,44.6,32.0,61,30.21,-9999.0,ENE,5.8,-,N/A,,Clear,70,2013-02-28 14:30:00
4:00 PM,44.6,32.0,61,30.21,-9999.0,East,4.6,-,N/A,,Clear,80,2013-02-28 15:00:00
4:30 PM,42.8,32.0,66,30.21,-9999.0,ENE,5.8,-,N/A,,Clear,70,2013-02-28 15:30:00
5:00 PM,41.0,32.0,70,30.21,-9999.0,ENE,5.8,-,N/A,,Clear,70,2013-02-28 16:00:00
5:30 PM,41.0,30.2,65,30.18,-9999.0,East,5.8,-,N/A,,Clear,80,2013-02-28 16:30:00
6:00 PM,39.2,32.0,75,30.18,-9999.0,NE,5.8,-,N/A,,Clear,50,2013-02-28 17:00:00
6:30 PM,39.2,30.2,70,30.18,5.0,ENE,4.6,-,N/A,,Unknown,60,2013-02-28 17:30:00
7:00 PM,38,30,63,30.24,5,NE,6.7,,,,Mist,40,2013-02-28 18:00:00
7:00 PM,39.2,30.2,70,30.18,5.0,NNE,5.8,-,N/A,,Partly Cloudy,30,2013-02-28 18:00:00
7:30 PM,37.4,30.2,75,30.18,5.6,ENE,4.6,-,N/A,,Partly Cloudy,60,2013-02-28 18:30:00
8:00 PM,37.4,30.2,75,30.18,5.0,NE,4.6,-,N/A,,Mostly Cloudy,50,2013-02-28 19:00:00
8:30 PM,37.4,32.0,81,30.18,5.0,NNE,1.2,-,N/A,,Mostly Cloudy,30,2013-02-28 19:30:00
9:00 PM,37.4,32.0,81,30.15,5.0,Variable,2.3,-,N/A,,Mostly Cloudy,0,2013-02-28 20:00:00
9:30 PM,37.4,32.0,81,30.15,5.0,Variable,2.3,-,N/A,,Mostly Cloudy,0,2013-02-28 20:30:00
10:00 PM,39.2,32.0,75,30.15,3.7,Variable,2.3,-,N/A,,Overcast,0,2013-02-28 21:00:00
10:30 PM,37.4,32.0,81,30.15,3.7,East,2.3,-,N/A,,Overcast,90,2013-02-28 21:30:00
11:00 PM,37.4,32.0,81,30.15,3.7,Variable,2.3,-,N/A,,Overcast,0,2013-02-28 22:00:00
11:30 PM,37.4,32.0,81,30.15,3.7,Calm,Calm,-,N/A,,Overcast,0,2013-02-28 22:30:00